Regional Weather Roundup
Issued by NWS

Home | Current Version | Previous Version | Graphics & Text | Print | Product List | Glossary Off
Versions: 1 2 3 4 5 6 7 8 9 10 11 12 13 14 15 16 17 18 19 20 21 22 23 24 25 26 27 28 29 30 31 32 33 34 35 36 37 38 39 40 41 42 43 44 45 46 47 48 49 50

000
ASUS43 KMKX 181411
RWRWI

WISCONSIN REGIONAL WEATHER ROUNDUP
NATIONAL WEATHER SERVICE MILWAUKEE/SULLIVAN WI
900 AM CDT FRI APR 18 2014

NOTE: "FAIR" INDICATES FEW OR NO CLOUDS BELOW 12,000 FEET WITH NO
SIGNIFICANT WEATHER AND/OR OBSTRUCTIONS TO VISIBILITY.

WIZ001-002-006>008-014>016-023>028-181500-
NORTHWEST WISCONSIN

CITY           SKY/WX    TMP DP  RH WIND       PRES   REMARKS
SUPERIOR ARPT  MOSUNNY   30  23  74 CALM      30.41S
ASHLAND        MOSUNNY   28  24  85 W3        30.42R
HAYWARD        CLOUDY    24  24 100 CALM      30.39R
SIREN          CLOUDY    29  26  88 CALM      30.40R
RICE LAKE      CLOUDY    27  26  96 CALM      30.41R
LADYSMITH      MOSUNNY   30  30  98 CALM      30.40R
EAU CLAIRE     CLOUDY    32  29  88 E6        30.37F WCI  26
MENOMONIE      CLOUDY    30  29  93 CALM      30.39F FOG
NEW RICHMOND   CLOUDY    34  32  92 SE3       30.38F
OSCEOLA        CLOUDY    30  28  95 CALM      30.41S
$$

WIZ003>005-009-010-017-018-181500-
NORTH CENTRAL WISCONSIN

CITY           SKY/WX    TMP DP  RH WIND       PRES   REMARKS
WOODRUFF       CLOUDY    32  28  85 N5        30.35R WCI  27
RHINELANDER    MOSUNNY   31  23  72 NW7       30.35R WCI  24
EAGLE RIVER    SUNNY     28  28 100 NW6       30.34R WCI  22
LAND O LAKES   CLOUDY    30  27  87 NW6       30.34R WCI  24
PHILLIPS       MOSUNNY  N/A N/A N/A CALM      30.36R
TOMAHAWK       SUNNY     31  23  71 CALM      30.36R
MEDFORD        CLOUDY    31  25  76 N5        30.36R WCI  27
MERRILL        MOSUNNY   33  24  68 CALM      30.37R
$$

WIZ029-030-035-036-043>047-181500-
CENTRAL WISCONSIN

CITY           SKY/WX    TMP DP  RH WIND       PRES   REMARKS
WAUSAU         PTSUNNY   34  24  67 N5        30.35R WCI  30
MOSINEE        SUNNY     34  28  80 N3        30.37R
MARSHFIELD     CLOUDY    37  27  67 NW8       30.37R WCI  31
STEVENS POINT  MOSUNNY   35  24  65 N3        30.37S
WAUPACA        SUNNY     39  25  56 NW7       30.38R WCI  34
WAUTOMA        SUNNY     38  26  62 N9        30.38R WCI  31
WISC RAPIDS    SUNNY     38  25  59 NW6       30.39R WCI  33
CAMP DOUGLAS   MOSUNNY   39  28  65 VRB5      30.38R
$$

WIZ011>013-019>022-031-037>040-048>050-181500-
NORTHEAST WISCONSIN

CITY           SKY/WX    TMP DP  RH WIND       PRES   REMARKS
ANTIGO         SUNNY     31  24  73 CALM      30.35R
STURGEON BAY   CLOUDY    36  23  60 N8        30.37R WCI  29
GREEN BAY      NOT AVBL
MANITOWOC      CLOUDY    37  29  72 N8        30.36S WCI  31
APPLETON       PTSUNNY   37  27  65 NW7       30.36S WCI  32
CLINTONVILLE   SUNNY     36  27  69 N8        30.36S WCI  29
OSHKOSH        CLOUDY    37  26  64 N7        30.36R WCI  32
$$

WIZ032>034-041-042-053>061-181500-
SOUTHWEST WISCONSIN

CITY           SKY/WX    TMP DP  RH WIND       PRES   REMARKS
LA CROSSE      CLOUDY    38  28  67 CALM      30.40R
SPARTA         SUNNY     37  27  68 N5        30.40R WCI  33
VIROQUA        PTSUNNY   35  29  79 NE5       30.37R WCI  31
BOSCOBEL       MOSUNNY   40  29  64 CALM      30.39R
PRAIRIE DU CHI SUNNY     36  30  79 CALM      30.38R
PLATTEVILLE    FAIR      39  32  75 NE7       30.36S WCI  34
$$

WIZ056-057-062-063-064-067-068-181500-
SOUTH CENTRAL WISCONSIN

CITY           SKY/WX    TMP DP  RH WIND       PRES   REMARKS
BARABOO/DELLS  SUNNY     36  28  72 CALM      30.37S
LONE ROCK      SUNNY     38  30  73 VRB5      30.38S WCI  34
WATERTOWN      SUNNY     38  32  76 N7        30.35S WCI  33
MADISON        MOSUNNY   39  31  72 N8        30.37S WCI  33
MIDDLETON      FAIR      38  31  74 N6        30.37S WCI  34
MONROE         SUNNY     39  38  97 NE7       30.35R WCI  34
JANESVILLE     SUNNY     43  30  61 NE7       30.35R
$$

WIZ051-052-058>065-066-070>072-181500-
SOUTHEAST WISCONSIN

CITY           SKY/WX    TMP DP  RH WIND       PRES   REMARKS
MILWAUKEE      PTSUNNY   40  32  73 N15G22    30.36R WCI  32
WAUKESHA       MOSUNNY   39  30  70 N6        30.35S WCI  35
MILWAUKEE/TIMM MOSUNNY   39  30  70 N9        30.35R WCI  33
RACINE         PTSUNNY   40  32  73 N15       30.36R WCI  32
BURLINGTON     CLOUDY    38  33  80 N5        30.34S WCI  35
KENOSHA        SUNNY     43  35  73 N10       30.34R
FOND DU LAC    CLOUDY    37  28  70 N9        30.36R WCI  30
SHEBOYGAN      CLOUDY    38  29  70 N8        30.35S WCI  32
WEST BEND      MOSUNNY   37  28  70 N8        30.35S WCI  31
JUNEAU         CLOUDY    37  30  74 NW7       30.37R WCI  32
$$

LSZ147-162-181500-
LAKE SUPERIOR

STATION/POSITION TIME  TEMP    WIND        PRES    WAVE
                       AIR SEA DIR/SP/G            HT/PER
                 (UTC) (F)     (DEG/KT/KT) (MB)    (FT/S)
DEVILS ISLAND    1400   30     320/ 11/ 13 1030.8R
PORT WING        1340   34     340/  1/  1 1030.1R
SAXON HARBOR     1300           CALM  /  3 1029.1R
$$

LMZ867-665-643>646-181500-
LAKE MICHIGAN

STATION/POSITION TIME  TEMP    WIND        PRES    WAVE
                       AIR SEA DIR/SP/G            HT/PER
                 (UTC) (F)     (DEG/KT/KT) (MB)    (FT/S)
NORTHPORT PIER   1300   35     290/  3/  5 1027.8R
SISTER BAY       1323   37        CALM       N/A
KEWAUNEE LAKESHO 1300   36     340/  4/  7 1028.5R
SHEBOYGAN LAKESH 1400   38      10/  9/ 10 1028.8R
PORT WASHINGTON  1300   39     350/  5/  9 1028.1
MILWAUKEE LAKESH 1300   39     350/  9/ 13   N/A
KENOSHA   LAKESH 1400   39      10/ 18/ 21   N/A
$$

TC  - TEMPERATURE IN CELSIUS
VSB - VISIBILITY IN STATUTE MILES
WCI - WIND CHILL INDEX
HX  - HEAT INDEX




USA.gov is the U.S. government's official web portal to all federal, state and local government web resources and services.